This demonstration page uses our WeatherBlox Daily Observations layout. Learn more.

Left ArrowRight Arrow

39.92423, -83.80882

Hourly Observations for December 5, 2021

Temp ( °F °C ) Dew Point ( °F °C ) Humidity (%) Winds ( mph kmh ) Pressure ( in mb ) Visibility ( mi km ) Precip ( " mm )
12:56 am 00:56 Clear 26 -3.3 26 -3.3 100 100 E 6 9 30.29 1026 10 16 N/A
1:56 am 01:56 Clear 27 -2.8 25 -3.9 92 92 NE 7 11 30.28 1025 10 16 N/A
2:56 am 02:56 Clear 27 -2.8 23 -5 85 85 ENE 9 15 30.27 1025 10 16 N/A
3:56 am 03:56 Clear 29 -1.7 24 -4.4 82 82 E 8 13 30.26 1025 10 16 N/A
4:56 am 04:56 Clear 30 -1.1 25 -3.9 82 82 E 8 13 30.25 1025 10 16 N/A
5:56 am 05:56 Clear 31 -0.6 24 -4.4 76 76 E 12 19 30.24 1024 10 16 N/A
6:56 am 06:56 Clear 29 -1.7 24 -4.4 82 82 E 10 17 30.24 1024 10 16 N/A
7:56 am 07:56 Sunny 31 -0.6 24 -4.4 76 76 ESE 12 19 30.23 1024 10 16 N/A
8:56 am 08:56 Partly Cloudy 33 0.6 24 -4.4 70 70 ESE 14 22 30.19 1022 10 16 N/A
9:56 am 09:56 Cloudy 36 2.2 25 -3.9 64 64 ESE 17 28 30.15 1021 10 16 N/A
10:56 am 10:56 Cloudy 39 3.9 25 -3.9 57 57 ESE 16 26 30.12 1020 10 16 N/A
11:56 am 11:56 Mostly Sunny 43 6.1 27 -2.8 53 53 SE 23 37 30.04 1017 10 16 N/A
12:25 pm 12:25 Mostly Cloudy 45 7 28 -2 53 53 SSE 16 26 30.02 1017 10 16 N/A
12:56 pm 12:56 Cloudy 44 6.7 30 -1.1 58 58 SSE 12 19 30.01 1016 10 16 N/A
1:56 pm 13:56 Cloudy 46 7.8 33 0.6 61 61 SSE 12 19 29.95 1014 10 16 N/A
2:56 pm 14:56 Mostly Cloudy 49 9.4 37 2.8 64 64 SSE 13 20 29.90 1012 10 16 N/A
3:56 pm 15:56 Mostly Sunny 52 11.1 41 5 66 66 S 9 15 29.87 1012 10 16 N/A
4:56 pm 16:56 Cloudy 52 11.1 43 6.1 72 72 S 14 22 29.84 1011 10 16 N/A
5:56 pm 17:56 Cloudy with Light Rain 51 10.6 47 8.3 86 86 SSE 10 17 29.82 1010 10 16 N/A
6:56 pm 18:56 Cloudy with Light Rain 52 11.1 51 10.6 97 97 S 9 15 29.80 1009 10 16 N/A
7:56 pm 19:56 Cloudy with Light Rain 54 12.2 54 12.2 100 100 S 13 20 29.78 1008 10 16 N/A
8:56 pm 20:56 Cloudy with Light Rain 57 13.9 57 13.9 100 100 S 15 24 29.76 1008 10 16 N/A
9:36 pm 21:36 Cloudy 57 14 57 14 100 100 SSW 16 26 29.75 1007 10 16 N/A
9:56 pm 21:56 Cloudy 59 15 59 15 100 100 SSW 17 28 29.76 1008 10 16 N/A
10:56 pm 22:56 Cloudy 57 14 N/A N/A SW 15 24 29.77 1008 10 16 N/A
11:56 pm 23:56 Mostly Cloudy 57 14 N/A N/A SSW 15 24 29.72 1006 10 16 N/A

Powered by AerisWeather